Weather reports worldwide

Advertisment
Wick Airport (AWS), United Kingdom (3075): temperature & dewpoint: 15.01.2020 23:00:00 - 21.01.2020 23:00:00 (GMT)Wick Airport (AWS), United Kingdom (3075): temperature -20cm: 15.01.2020 23:00:00 - 21.01.2020 23:00:00 (GMT)Wick Airport (AWS), United Kingdom (3075): wind speed & gusts: 15.01.2020 23:00:00 - 21.01.2020 23:00:00 (GMT)Wick Airport (AWS), United Kingdom (3075): wind direction: 15.01.2020 23:00:00 - 21.01.2020 23:00:00 (GMT)Wick Airport (AWS), United Kingdom (3075): reduced air pressure: 15.01.2020 23:00:00 - 21.01.2020 23:00:00 (GMT)Wick Airport (AWS), United Kingdom (3075): visibility: 15.01.2020 23:00:00 - 21.01.2020 23:00:00 (GMT)Wick Airport (AWS), United Kingdom (3075): precipitation: 15.01.2020 23:00:00 - 21.01.2020 23:00:00 (GMT)
Date & Time tt [°C] td [°C] tt -20cm [°C] ff [km/h] ff [kn] fx [km/h] fx [kn] dd ppp [hPa] vv [km] rr [mm]
21.01.2020 23:00:00 5,0 4,5 - 4 2 - - SW 1033,9 50 0,0
21.01.2020 22:00:00 4,4 3,7 - 4 2 - - WNW 1034,1 45 0,0
21.01.2020 21:00:00 5,6 4,5 - 5 3 - - SW 1034,1 50 0,0
21.01.2020 20:00:00 5,5 4,5 - 5 3 - - S 1034,2 50 0,0
21.01.2020 19:00:00 6,3 4,8 - 4 2 - - S 1034,0 50 0,0
21.01.2020 18:00:00 6,2 4,8 - 8 4 - - SSW 1034,0 40 0,0
21.01.2020 17:00:00 5,8 5,1 - 5 3 - - SW 1034,1 45 0,0
21.01.2020 16:00:00 5,5 4,2 - 11 6 - - W 1033,9 45 0,0
21.01.2020 15:00:00 6,8 5,2 - 16 9 - - W 1034,0 40 0,0
21.01.2020 14:00:00 7,6 5,9 - 15 8 - - W 1034,7 40 0,0
21.01.2020 13:00:00 8,3 6,2 - 18 10 - - WSW 1035,0 40 0,0
21.01.2020 12:00:00 7,5 6,4 - 8 4 - - W 1035,6 27 0,0
21.01.2020 11:00:00 7,0 6,4 - 16 9 - - SW 1035,5 45 0,0
21.01.2020 10:00:00 6,3 5,8 - 8 4 - - SW 1035,5 35 0,0
21.01.2020 09:00:00 5,7 5,1 4,9 11 6 - - SSW 1035,0 40 0,0
21.01.2020 08:00:00 5,8 5,3 - 9 5 - - SW 1034,7 40 0,0
21.01.2020 07:00:00 6,2 5,8 - 9 5 - - W 1034,5 19 0,0
21.01.2020 06:00:00 6,7 6,4 - 8 4 - - SSW 1034,1 17 0,0
21.01.2020 05:00:00 7,1 6,7 - 11 6 - - WNW 1034,3 15 0,0
21.01.2020 04:00:00 7,6 7,2 - 21 11 - - WNW 1034,1 9 0,6
21.01.2020 03:00:00 8,4 7,8 - 26 14 - - WNW 1033,4 3,7 0,4
21.01.2020 02:00:00 9,9 8,5 - 24 13 - - WSW 1032,3 3,8 0,0
21.01.2020 01:00:00 10,7 7,9 - 29 16 - - WSW 1031,6 50 0,0
21.01.2020 00:00:00 10,7 7,8 - 31 17 - - SW 1031,4 50 0,0
20.01.2020 23:00:00 10,2 7,2 - 26 14 57 31 SSW 1031,6 45 0,0
20.01.2020 22:00:00 10,3 7,0 - 41 22 54 29 SW 1031,4 50 0,0
20.01.2020 21:00:00 10,2 6,8 - 34 18 50 27 SW 1031,4 50 0,0
20.01.2020 20:00:00 9,9 6,6 - 28 15 54 29 SW 1032,0 45 0,0
20.01.2020 19:00:00 9,7 6,5 - 41 22 61 33 SW 1031,7 40 0,0
20.01.2020 18:00:00 9,6 6,3 - 37 20 54 29 SW 1031,9 45 0,0
20.01.2020 17:00:00 9,4 6,3 - 37 20 55 30 SW 1032,4 40 0,0
20.01.2020 16:00:00 10,2 6,8 - 37 20 63 34 SW 1032,5 40 0,0
20.01.2020 15:00:00 11,5 7,7 - 31 17 57 31 WSW 1032,8 30 0,0
20.01.2020 14:00:00 11,8 7,0 - 26 14 - - SSW 1032,5 22 0,0
20.01.2020 13:00:00 10,6 5,9 - 35 19 50 27 SW 1032,7 40 0,0
20.01.2020 12:00:00 8,7 5,5 - 31 17 46 25 S 1033,1 20 0,0
20.01.2020 11:00:00 8,2 5,8 - 26 14 50 27 S 1033,6 19 0,0
20.01.2020 10:00:00 8,3 5,7 - 24 13 52 28 SSW 1033,4 45 0,0
20.01.2020 09:00:00 7,9 5,9 4,0 39 21 54 29 SSW 1033,3 28 0,0
20.01.2020 08:00:00 8,2 5,9 - 31 17 50 27 SSW 1033,3 30 0,0
20.01.2020 07:00:00 8,2 5,7 - 29 16 - - SSW 1033,5 35 0,0
20.01.2020 06:00:00 8,3 5,8 - 18 10 - - SSE 1033,8 29 0,0
20.01.2020 05:00:00 9,3 6,5 - 28 15 46 25 WSW 1033,7 45 0,0
20.01.2020 04:00:00 7,5 5,5 - 26 14 - - SSE 1034,0 21 0,0
20.01.2020 03:00:00 7,8 5,3 - 22 12 - - S 1033,8 23 0,0
20.01.2020 02:00:00 8,9 5,5 - 26 14 55 30 SW 1034,1 45 0,0
20.01.2020 01:00:00 8,7 5,0 - 28 15 50 27 SSW 1034,0 45 0,0
20.01.2020 00:00:00 8,9 4,9 - 28 15 48 26 SW 1034,3 40 0,0
19.01.2020 23:00:00 9,2 5,0 - 34 18 65 35 WSW 1034,0 40 0,0
19.01.2020 22:00:00 9,2 4,5 - 34 18 50 27 SW 1033,8 50 0,0
19.01.2020 21:00:00 8,7 4,2 - 34 18 48 26 SW 1034,2 50 0,0
19.01.2020 20:00:00 8,4 3,9 - 16 9 - - S 1034,1 30 0,0
19.01.2020 19:00:00 7,9 2,9 - 18 10 - - SW 1034,4 35 0,0
19.01.2020 18:00:00 7,6 2,5 - 22 12 - - SSW 1034,3 35 0,0
19.01.2020 17:00:00 6,6 2,3 - 16 9 - - SSW 1034,8 35 0,0
19.01.2020 16:00:00 6,0 2,5 - 18 10 - - SSW 1034,5 27 0,0
19.01.2020 15:00:00 6,1 2,3 - 18 10 - - SSW 1034,6 25 0,0
19.01.2020 14:00:00 6,4 2,4 - 16 9 - - SSW 1034,3 30 0,0
19.01.2020 13:00:00 6,2 3,0 - 18 10 - - S 1034,7 35 0,0
19.01.2020 12:00:00 5,9 3,0 - 15 8 - - S 1035,3 35 0,0
19.01.2020 11:00:00 6,0 3,0 - 24 13 - - SSW 1035,4 35 0,0
19.01.2020 10:00:00 5,3 2,8 - 18 10 - - S 1035,3 45 0,0
19.01.2020 09:00:00 4,7 0,9 3,9 13 7 - - S 1036,4 50 0,0
19.01.2020 08:00:00 4,2 0,8 - 13 7 - - SSW 1036,3 50 0,0
19.01.2020 07:00:00 3,3 0,2 - 9 5 - - S 1036,2 45 0,0
19.01.2020 06:00:00 3,3 0,0 - 13 7 - - SSW 1036,2 45 0,0
19.01.2020 05:00:00 3,1 0,0 - 15 8 - - S 1035,4 45 0,0
19.01.2020 04:00:00 2,3 -0,7 - 13 7 - - SSW 1034,7 45 0,0
19.01.2020 03:00:00 2,6 -0,5 - 13 7 - - SW 1034,1 45 0,0
19.01.2020 02:00:00 1,4 -0,5 - 18 10 - - W 1033,5 35 0,0
19.01.2020 01:00:00 1,8 0,0 - 21 11 - - W 1032,7 40 0,0
19.01.2020 00:00:00 2,0 0,2 - 24 13 48 26 W 1032,3 35 0,0
18.01.2020 23:00:00 2,4 0,6 - 24 13 - - W 1031,5 35 0,0
18.01.2020 22:00:00 2,2 0,7 - 21 11 - - W 1030,7 21 0,0
18.01.2020 21:00:00 2,5 1,1 - 21 11 - - W 1029,4 11 0,0
18.01.2020 20:00:00 3,1 1,1 - 18 10 48 26 W 1028,7 21 0,2
18.01.2020 19:00:00 4,4 2,0 - 28 15 48 26 W 1027,7 5 0,4
18.01.2020 18:00:00 4,8 1,9 - 34 18 57 31 W 1026,2 20 0,0
18.01.2020 17:00:00 4,8 0,9 - 34 18 65 35 WNW 1024,7 18 0,6
18.01.2020 16:00:00 5,0 2,8 - 29 16 68 37 WNW 1023,5 12 0,2
18.01.2020 15:00:00 4,9 1,4 - 39 21 55 30 W 1021,8 22 0,0
18.01.2020 14:00:00 4,9 1,2 - 44 24 70 38 WNW 1020,8 3,2 0,0
18.01.2020 13:00:00 4,0 1,2 - 44 24 74 40 WNW 1019,5 26 0,0
18.01.2020 12:00:00 3,1 0,8 - 48 26 76 41 WNW 1018,8 21 0,2
18.01.2020 11:00:00 3,2 0,5 - 29 16 61 33 W 1017,4 35 0,4
18.01.2020 10:00:00 2,6 1,0 - 24 13 - - WSW 1016,3 16 0,0
18.01.2020 09:00:00 2,6 1,0 4,2 39 21 74 40 W 1015,2 35 0,2
18.01.2020 08:00:00 1,8 0,5 - 22 12 59 32 SW 1014,0 27 0,2
18.01.2020 07:00:00 1,9 0,3 - 28 15 54 29 W 1013,4 40 0,4
18.01.2020 06:00:00 2,8 0,8 - 34 18 46 25 W 1012,1 15 0,0
18.01.2020 05:00:00 2,8 0,6 - 31 17 55 30 W 1011,1 21 0,2
18.01.2020 04:00:00 2,8 0,2 - 22 12 67 36 WSW 1010,2 19 0,0
18.01.2020 03:00:00 4,2 -0,2 - 42 23 57 31 W 1009,3 26 0,0
18.01.2020 02:00:00 4,0 0,5 - 21 11 - - WSW 1008,4 12 0,0
18.01.2020 01:00:00 4,1 1,4 - 24 13 46 25 WSW 1007,3 13 0,0
18.01.2020 00:00:00 3,4 1,7 - 26 14 55 30 W 1006,3 10 0,0
17.01.2020 23:00:00 2,7 1,1 - 35 19 61 33 W 1005,1 30 0,0
17.01.2020 22:00:00 3,5 1,8 - 44 24 61 33 W 1004,0 50 0,0
17.01.2020 21:00:00 4,3 2,3 - 29 16 - - W 1003,3 23 0,0
17.01.2020 20:00:00 4,5 2,1 - 29 16 - - W 1002,7 35 0,0
17.01.2020 19:00:00 5,3 2,2 - 28 15 - - WSW 1002,0 24 0,0
17.01.2020 18:00:00 4,7 1,9 - 26 14 - - SW 1001,2 22 0,0
17.01.2020 17:00:00 5,5 2,0 - 34 18 - - SW 1000,3 30 0,0
17.01.2020 16:00:00 5,9 2,3 - 31 17 - - SW 999,6 20 0,0
17.01.2020 15:00:00 6,4 1,8 - 31 17 55 30 SW 998,6 18 0,0
17.01.2020 14:00:00 7,0 1,3 - 41 22 63 34 SW 997,7 19 0,0
17.01.2020 13:00:00 6,9 2,4 - 39 21 55 30 SSW 996,9 40 0,0
17.01.2020 12:00:00 5,9 2,3 - 34 18 52 28 SSW 996,6 24 0,0
17.01.2020 11:00:00 5,7 2,0 - 34 18 61 33 SSW 996,1 30 0,0
17.01.2020 10:00:00 5,5 1,0 - 42 23 63 34 SSW 994,9 23 0,0
17.01.2020 09:00:00 5,4 1,0 4,2 42 23 78 42 S 994,5 21 0,0
17.01.2020 08:00:00 5,7 1,4 - 44 24 63 34 S 993,7 23 0,0
17.01.2020 07:00:00 5,8 1,6 - 46 25 68 37 S 993,5 30 0,0
17.01.2020 06:00:00 5,9 1,8 - 50 27 74 40 S 993,2 29 0,0
17.01.2020 05:00:00 5,8 2,3 - 42 23 68 37 S 992,7 30 0,0
17.01.2020 04:00:00 6,3 2,4 - 44 24 67 36 SSW 992,7 27 0,0
17.01.2020 03:00:00 6,5 2,4 - 39 21 57 31 SSW 992,8 28 0,0
17.01.2020 02:00:00 6,4 3,3 - 37 20 55 30 SSW 992,7 30 0,0
17.01.2020 01:00:00 6,5 3,2 - 37 20 54 29 SSW 992,4 35 0,0
17.01.2020 00:00:00 7,0 3,3 - 41 22 63 34 SSW 991,6 26 0,0
16.01.2020 23:00:00 7,2 3,7 - 31 17 54 29 S 990,7 40 0,0
16.01.2020 22:00:00 8,0 5,6 - 26 14 - - S 990,1 17 0,0
16.01.2020 21:00:00 7,9 6,0 - 28 15 52 28 SSE 989,4 13 0,0
16.01.2020 20:00:00 7,7 5,9 - 31 17 63 34 SSE 988,9 12 0,0
16.01.2020 19:00:00 7,3 5,9 - 35 19 59 32 SE 989,7 9 1,4
16.01.2020 18:00:00 6,9 5,8 - 37 20 59 32 SE 991,9 4,3 1,8
16.01.2020 17:00:00 7,3 5,0 - 31 17 55 30 SSE 993,6 9 0,0
16.01.2020 16:00:00 7,3 4,8 - 31 17 54 29 SE 995,3 16 0,0
16.01.2020 15:00:00 7,6 4,8 - 37 20 59 32 SE 996,6 17 0,0
16.01.2020 14:00:00 7,4 5,1 - 29 16 55 30 SE 998,6 13 0,0
16.01.2020 13:00:00 7,3 5,0 - 24 13 54 29 SE 1000,2 14 0,0
16.01.2020 12:00:00 7,0 4,8 - 35 19 54 29 SSE 1001,2 15 0,0
16.01.2020 11:00:00 6,7 4,1 - 29 16 48 26 SE 1001,9 19 0,0
16.01.2020 10:00:00 6,4 3,0 - 28 15 - - SE 1002,9 25 0,0
16.01.2020 09:00:00 6,5 2,3 4,0 21 11 - - SSE 1003,4 28 0,0
16.01.2020 08:00:00 6,1 2,6 - 21 11 - - S 1003,1 27 0,0
16.01.2020 07:00:00 5,0 2,3 - 16 9 - - S 1003,0 23 0,0
16.01.2020 06:00:00 4,8 1,3 - 24 13 46 25 SSW 1002,3 45 0,0
16.01.2020 05:00:00 5,2 1,6 - 34 18 46 25 SSW 1001,7 30 0,0
16.01.2020 04:00:00 4,2 -0,1 - 24 13 - - SSW 1001,3 45 0,0
16.01.2020 03:00:00 5,5 0,6 - 28 15 50 27 SSW 1000,1 40 0,0
16.01.2020 02:00:00 6,0 1,6 - 41 22 63 34 SW 998,8 23 0,0
16.01.2020 01:00:00 6,1 2,2 - 39 21 61 33 WSW 997,3 35 0,0
16.01.2020 00:00:00 6,0 2,5 - 48 26 70 38 WSW 995,4 45 0,0
15.01.2020 23:00:00 6,2 3,3 - 37 20 57 31 WSW 993,4 40 0,0

tt = temperature
td = dewpoint
tt -20cm = temperature -20cm
ff = wind speed
fx = gusts
dd = wind direction
ppp = reduced air pressure
vv = visibility
rr = precipitation

Next stations